Regional Weather Roundup
Issued by NWS

Home | Current Version | Previous Version | Graphics & Text | Print | Product List | Glossary On
Versions: 1 2 3 4 5 6 7 8 9 10 11 12 13 14 15 16 17 18 19 20 21 22 23 24 25 26 27 28 29 30 31 32 33 34 35 36 37 38 39 40 41 42 43 44 45 46 47 48 49 50
000
ASUS43 KDTX 110210
RWRMI
MICHIGAN HOURLY REGIONAL WEATHER ROUNDUP
NATIONAL WEATHER SERVICE DETROIT/PONTIAC MI
ISSUED BY NATIONAL WEATHER SERVICE GRAND RAPIDS MI
900 PM EST SUN DEC 10 2017

NOTE: "FAIR" INDICATES FEW OR NO CLOUDS BELOW 12,000 FEET WITH NO
SIGNIFICANT WEATHER AND/OR OBSTRUCTION TO VISIBILITY.

MIZ047>049-052>055-059>063-066>070-074>076-081>083-110300-
SOUTHEAST LOWER MICHIGAN

CITY           SKY/WX    TMP DP  RH WIND       PRES   REMARKS
ADRIAN         CLOUDY    28  21  75 W6        29.97R WCI  22
ALMA           CLOUDY    26  23  89 W6        29.97R WCI  19
ANN ARBOR      CLOUDY    27  23  85 W8        29.95R WCI  19
BAD AXE        FLURRIES  26  24  93 W8        29.92R WCI  17
DETROIT CITY   CLOUDY    28  21  75 W10       29.96R WCI  19
DETROIT        CLOUDY    29  23  78 W10       29.96R WCI  20
FLINT          CLOUDY    25  23  92 W8        29.95R WCI  16
GROSSE ILE     CLOUDY    30  23  76 W8        29.95R WCI  22
HILLSDALE      CLOUDY    28  25  86 W8        29.94R WCI  20
HOWELL         CLOUDY    26  26  97 W8        29.95R FOG     WCI  18

CITY           SKY/WX    TMP DP  RH WIND       PRES   REMARKS
JACKSON        CLOUDY    27  23  85 W8        29.95R FOG     WCI  19
LANSING        CLOUDY    26  23  88 NW6       29.97R WCI  19
MASON          CLOUDY    28  23  82 NW7       29.95S WCI  21
MONROE         CLOUDY    29  21  72 W8        29.95S WCI  21
MT. CLEMENS    FLURRIES  27  24  86 W10       29.93R WCI  18
PONTIAC        LGT SNOW  25  24  96 W8        29.92S WCI  16
PORT HOPE        N/A     28  21  75 NW16G25   29.90R WCI  16
PORT HURON     FLURRIES  27  21  80 W3        29.94R
TRI CITIES     CLOUDY    26  24  92 W12       29.96R WCI  16
YPSILANTI      CLOUDY    30  24  78 W7        29.96R WCI  23
$$
MIZ043>046-050>051-056>058-064>065-071>073-077>080-110300-
SOUTHWEST LOWER MICHIGAN

CITY           SKY/WX    TMP DP  RH WIND       PRES   REMARKS
BATTLE CREEK   CLOUDY    28  22  78 NW7       29.98R WCI  21
BENTON HARBOR  CLOUDY    32  22  66 NW7       30.02R WCI  26
BIG RAPIDS     FLURRIES  25  20  83 N5        29.97R WCI  19
COLDWATER      CLOUDY    29  26  88 W7        29.97R WCI  22
HOLLAND        CLOUDY    29  20  69 N3        30.01R
GRAND RAPIDS   FLURRIES  27  22  81 W7        29.99R WCI  19
KALAMAZOO      CLOUDY    28  22  78 N9        29.99R WCI  19
MARSHALL       CLOUDY    27  25  91 NW5       29.97R WCI  22
MOUNT PLEASANT FLURRIES  27  21  80 W5        29.96R WCI  21
MUSKEGON       FLURRIES  29  20  69 NW9       30.01R WCI  20
STURGIS        CLOUDY    29  25  84 W6        29.98R WCI  23
$$
MIZ016>042-110300-
NORTHERN LOWER MICHIGAN

CITY           SKY/WX    TMP DP  RH WIND       PRES   REMARKS
ALPENA         CLOUDY    18   9  68 NW8       29.97R WCI   8
BEAVER ISLAND  CLOUDY    19   9  64 NW7G18    30.01R WCI  10
BELLAIRE       CLOUDY    19  12  72 N6        30.02R WCI  11
CADILLAC       CLOUDY    21  13  69 NW13G20   29.94R WCI   9
CHARLEVOIX     CLOUDY    20  11  68 N10G18    30.03R WCI   9
GAYLORD        CLOUDY    14   6  70 VRB7      29.94R WCI   4
HOUGHTON LAKE  CLOUDY    21  13  71 NW13      29.94R WCI   9
MANISTEE       FLURRIES  27  18  69 N13G18    30.01R WCI  16
OSCODA         CLOUDY    22  14  70 NW14      29.94R WCI   9
PELLSTON       CLOUDY    17   7  64 N10       30.00R WCI   5
TRAVERSE CITY  LGT SNOW  23  17  78 N13G18    30.00R WCI  11
LUDINGTON      FLURRIES  27  22  79 N6        30.00R WCI  21
$$
MIZ007>008-015-110300-
EASTERN UPPER MICHIGAN

CITY           SKY/WX    TMP DP  RH WIND       PRES   REMARKS
KINROSS        FLURRIES   9   2  73 NE5       29.98R WCI   1
MACKINAC ISLAN CLOUDY    16   7  67 NW10G18   29.98R WCI   4
NEWBERRY       CLOUDY    14   9  81 NW3       29.97S
S. S. MARIE    CLOUDY     8  -1  66 NE8       29.98R WCI  -4
$$
MIZ004>006-011>014-085-110300-
CENTRAL UPPER MICHIGAN

CITY           SKY/WX    TMP DP  RH WIND       PRES   REMARKS
MANISTIQUE     CLOUDY    16   8  72 W3        30.01S
ESCANABA       CLOUDY    14   5  67 W7        30.05R WCI   4
MENOMINEE      CLOUDY    20  12  71 N5        30.06R WCI  13
SAWYER-GWINN   CLOUDY    12   7  79 NW7       29.99S WCI   2
$$
MIZ001>003-009>011-084-110300-
WESTERN UPPER MICHIGAN

CITY           SKY/WX    TMP DP  RH WIND       PRES   REMARKS
IRON MOUNTAIN  CLOUDY    15   8  73 N3        30.00R
HOUGHTON       CLOUDY    13   4  67 CALM      29.98F
COPPER HARBOR    N/A     16   8  71 NE13G21   30.02F WCI   2
$$

ABBREVIATIONS USED IN REMARKS
   TC - TEMPERATURE IN CELSIUS
  WCI - WIND CHILL INDEX
   HX - HEAT INDEX
  VSB - VISIBILITY




USA.gov is the U.S. government's official web portal to all federal, state and local government web resources and services.